METEOR 2-11 DEB, 60003

Orbit data source: Space-Track

METEOR 2-11 DEB, 60003 is space debris in LEO originally from a launch on Thu, 05 Jul 1984 UTC launched from the Plesetsk Missile And Space Complex (PKMTR). Debris objects in space refer to the collection of defunct objects orbiting the Earth. Examples of debris include non-operational satellites, rocket bodies, and fragments generated from explosions, collisions, or faulty payload assembly.

Loading next visibility...
Identifier
60003, 1984-072Y
Orbit
LEO
Country
Flag of CISCIS
Related business
Manufacturer
Unknown
Mission
Spacecraft
Bus & Motor
Unknown
Mass
Unknown
Launch date (UTC)
1984-07-05 (41 years ago)
Launch vehicle
Unknown
Launch site
Plesetsk Missile And Space Complex (PKMTR)
Object type
Payload
Rocket body
Debris
Shape & HBR
Unknown shape, 0.1 m
Radar Cross Section
Small (<0.1 m²)

Expand to show TLE details & history
Last TLE update: 2 months ago

TLE from 2 months ago
0 METEOR 2-11 DEB
1 60003U 84072Y   25236.77676092  .00001577  00000-0  11472-2 0  9999
2 60003  82.5340 255.7362 0023758 119.0907 241.2642 13.95550777424959
Epoch: 2025-08-24T18:38Z
TLE epoch observation values (Epoch: 2025-08-24T18:38:32.143Z)
Latitude
-0.00009°
Longitude
2.80995°
Altitude
920.518 km
Speed
7.387 km/s
True Right ascension
17h 02m 56s
True Declination
0° 00' 00"
Sunlit
Object was in daylight at epoch
Visualization orbit readout
Latitude
Unknown
Longitude
Unknown
Altitude
Unknown
Speed
Unknown
Apparent Right ascension
Unknown
Apparent Declination
Unknown
Sunlit
N/A
Visualization observer readout
Local Sidereal Time
19:19:16
Azimuth
Unknown
Elevation
Unknown
Doppler factor
Unknown
Orbital elements
Apogee altitude
923.686 km
Perigee altitude
889.073 km
Semi-major axis
7,284.517 km
Eccentricity
0.00238
Inclination
82.534°
RAAN
255.7362°
Arg. of periapsis
119.0907°
True anomaly
241.02582°
Mean anomaly
241.2642°
Eccentric anomaly
241.14498°
Mean motion
3.49094 °/min
Orbital period
103.12 mins
BSTAR
0.0011472
Loading maneuver chart data...
Computing Atmospheric mass density...
Loading historical data...
Loading historical data...
Loading historical data...
Loading historical data...
Loading historical data...
Loading historical data...
Loading historical data...

Documentation

Showing up to 5 results
|